Time,TemperatureF,DewpointF,PressureIn,WindDirection,WindDirectionDegrees,WindSpeedMPH,WindSpeedGustMPH,Humidity,HourlyPrecipIn,Conditions,Clouds,dailyrainin,SoftwareType,DateUTC
2013-03-07 00:00:00,32.9,29.2,18.63,North,4,0.0,0.0,86,0.00,,---,0.00,VWS V13.01,2013-03-07 05:00:00,
2013-03-07 00:01:00,32.9,29.2,18.63,North,4,0.0,0.0,86,0.00,,---,0.00,VWS V13.01,2013-03-07 05:01:00,
2013-03-07 00:02:00,32.9,29.2,18.63,North,4,0.0,0.0,86,0.00,,---,0.00,VWS V13.01,2013-03-07 05:02:00,
2013-03-07 00:07:00,32.9,29.2,18.63,North,4,0.0,0.0,86,0.00,,---,0.00,VWS V13.01,2013-03-07 05:07:00,
2013-03-07 00:12:00,32.7,29.0,18.63,North,4,0.0,0.0,86,0.00,,---,0.00,VWS V13.01,2013-03-07 05:12:00,
2013-03-07 00:18:00,32.7,29.0,18.63,North,4,0.0,0.0,86,0.00,,---,0.00,VWS V13.01,2013-03-07 05:18:00,
2013-03-07 00:23:00,32.7,29.0,18.63,North,4,0.0,0.0,86,0.00,,---,0.00,VWS V13.01,2013-03-07 05:23:00,
2013-03-07 00:28:00,32.7,29.0,18.63,North,4,0.0,0.0,86,0.00,,---,0.00,VWS V13.01,2013-03-07 05:28:00,
2013-03-07 00:33:00,32.7,29.3,18.63,North,4,0.0,0.0,87,0.00,,---,0.00,VWS V13.01,2013-03-07 05:33:00,
2013-03-07 00:38:00,32.5,29.1,18.63,North,4,0.0,0.0,87,0.00,,---,0.00,VWS V13.01,2013-03-07 05:38:00,
2013-03-07 00:43:00,32.5,29.1,18.63,North,4,0.0,0.0,87,0.00,,---,0.00,VWS V13.01,2013-03-07 05:43:00,
2013-03-07 00:48:00,32.5,29.1,18.63,North,4,0.0,0.0,87,0.00,,---,0.00,VWS V13.01,2013-03-07 05:48:00,
2013-03-07 00:53:00,32.5,29.1,18.63,North,4,0.0,0.0,87,0.00,,---,0.00,VWS V13.01,2013-03-07 05:53:00,
2013-03-07 00:58:00,32.5,29.1,18.63,North,4,0.0,0.0,87,0.00,,---,0.00,VWS V13.01,2013-03-07 05:58:00,
2013-03-07 01:03:00,32.5,29.1,18.63,North,4,0.0,0.0,87,0.00,,---,0.00,VWS V13.01,2013-03-07 06:03:00,
2013-03-07 01:08:00,32.5,29.1,18.63,North,4,0.0,0.0,87,0.00,,---,0.00,VWS V13.01,2013-03-07 06:08:00,
2013-03-07 01:13:00,32.5,29.1,18.63,North,4,0.0,0.0,87,0.00,,---,0.00,VWS V13.01,2013-03-07 06:13:00,
2013-03-07 01:19:00,32.5,29.1,18.63,North,4,0.0,0.0,87,0.00,,---,0.00,VWS V13.01,2013-03-07 06:19:00,
2013-03-07 01:24:00,32.5,29.4,18.63,North,4,0.0,0.0,88,0.00,,---,0.00,VWS V13.01,2013-03-07 06:24:00,
2013-03-07 01:29:00,32.5,29.4,18.63,North,4,0.0,0.0,88,0.00,,---,0.00,VWS V13.01,2013-03-07 06:29:00,
2013-03-07 01:34:00,32.5,29.4,18.63,North,4,0.0,0.0,88,0.00,,---,0.00,VWS V13.01,2013-03-07 06:34:00,
2013-03-07 01:39:00,32.5,29.4,18.63,North,4,0.0,0.0,88,0.00,,---,0.00,VWS V13.01,2013-03-07 06:39:00,
2013-03-07 01:44:00,32.5,29.1,18.63,North,4,0.0,0.0,87,0.00,,---,0.00,VWS V13.01,2013-03-07 06:44:00,
2013-03-07 01:49:00,32.4,28.9,18.63,North,4,0.0,0.0,87,0.00,,---,0.00,VWS V13.01,2013-03-07 06:49:00,
2013-03-07 01:54:00,32.4,28.9,18.63,North,4,0.0,0.0,87,0.00,,---,0.00,VWS V13.01,2013-03-07 06:54:00,
2013-03-07 01:59:00,32.4,29.2,18.63,North,4,0.0,0.0,88,0.00,,---,0.00,VWS V13.01,2013-03-07 06:59:00,
2013-03-07 02:04:00,32.4,29.2,18.63,North,4,0.0,0.0,88,0.00,,---,0.00,VWS V13.01,2013-03-07 07:04:00,
2013-03-07 02:09:00,32.4,29.2,18.63,North,4,0.0,0.0,88,0.00,,---,0.00,VWS V13.01,2013-03-07 07:09:00,
2013-03-07 02:14:00,32.4,29.2,18.63,North,4,0.0,0.0,88,0.00,,---,0.00,VWS V13.01,2013-03-07 07:14:00,
2013-03-07 02:19:00,32.2,29.0,18.63,North,4,0.0,0.0,88,0.00,,---,0.00,VWS V13.01,2013-03-07 07:19:00,
2013-03-07 02:25:00,32.2,29.0,18.63,North,4,0.0,0.0,88,0.00,,---,0.00,VWS V13.01,2013-03-07 07:25:00,
2013-03-07 02:30:00,32.2,29.0,18.63,North,4,0.0,0.0,88,0.00,,---,0.00,VWS V13.01,2013-03-07 07:30:00,
2013-03-07 02:35:00,32.2,29.0,18.63,North,4,0.0,0.0,88,0.00,,---,0.00,VWS V13.01,2013-03-07 07:35:00,
2013-03-07 02:40:00,32.2,29.0,18.63,North,4,0.0,0.0,88,0.00,,---,0.00,VWS V13.01,2013-03-07 07:40:00,
2013-03-07 02:45:00,32.0,28.9,18.63,North,4,0.0,0.0,88,0.00,,---,0.00,VWS V13.01,2013-03-07 07:45:00,
2013-03-07 02:50:00,32.0,28.9,18.63,North,4,0.0,0.0,88,0.00,,---,0.00,VWS V13.01,2013-03-07 07:50:00,
2013-03-07 02:55:00,32.0,28.9,18.63,North,4,0.0,0.0,88,0.00,,---,0.00,VWS V13.01,2013-03-07 07:55:00,
2013-03-07 03:00:00,32.0,28.9,18.63,North,4,0.0,0.0,88,0.00,,---,0.00,VWS V13.01,2013-03-07 08:00:00,
2013-03-07 03:06:00,32.0,29.1,18.63,North,4,0.0,0.0,89,0.00,,---,0.00,VWS V13.01,2013-03-07 08:06:00,
2013-03-07 03:11:00,32.0,29.1,18.63,North,4,0.0,0.0,89,0.00,,---,0.00,VWS V13.01,2013-03-07 08:11:00,
2013-03-07 03:16:00,32.0,29.1,18.63,North,4,0.0,0.0,89,0.00,,---,0.00,VWS V13.01,2013-03-07 08:16:00,
2013-03-07 03:21:00,32.0,29.1,18.63,North,4,0.0,0.0,89,0.00,,---,0.00,VWS V13.01,2013-03-07 08:21:00,
2013-03-07 03:26:00,31.8,29.0,18.63,North,4,0.0,0.0,89,0.00,,---,0.00,VWS V13.01,2013-03-07 08:26:00,
2013-03-07 03:31:00,32.0,29.1,18.63,North,4,0.0,0.0,89,0.00,,---,0.00,VWS V13.01,2013-03-07 08:31:00,
2013-03-07 03:37:00,31.8,29.0,18.63,North,4,0.0,0.0,89,0.00,,---,0.00,VWS V13.01,2013-03-07 08:37:00,
2013-03-07 03:42:00,31.8,29.0,18.63,North,4,0.0,0.0,89,0.00,,---,0.00,VWS V13.01,2013-03-07 08:42:00,
2013-03-07 03:47:00,31.8,29.0,18.63,North,4,0.0,0.0,89,0.00,,---,0.00,VWS V13.01,2013-03-07 08:47:00,
2013-03-07 03:52:00,31.8,29.0,18.63,North,4,0.0,0.0,89,0.00,,---,0.00,VWS V13.01,2013-03-07 08:52:00,
2013-03-07 03:57:00,31.8,29.0,18.63,North,4,0.0,0.0,89,0.00,,---,0.00,VWS V13.01,2013-03-07 08:57:00,
2013-03-07 04:02:00,31.8,29.0,18.63,North,4,0.0,0.0,89,0.00,,---,0.00,VWS V13.01,2013-03-07 09:02:00,
2013-03-07 04:07:00,31.8,29.0,18.63,North,4,0.0,0.0,89,0.00,,---,0.00,VWS V13.01,2013-03-07 09:07:00,
2013-03-07 04:13:00,32.0,29.1,18.63,North,4,0.0,0.0,89,0.00,,---,0.00,VWS V13.01,2013-03-07 09:13:00,
2013-03-07 04:19:00,32.0,29.4,18.63,North,4,0.0,0.0,90,0.00,,---,0.00,VWS V13.01,2013-03-07 09:19:00,
2013-03-07 04:24:00,32.0,29.4,18.63,North,4,0.0,0.0,90,0.00,,---,0.00,VWS V13.01,2013-03-07 09:24:00,
2013-03-07 04:29:00,32.2,29.6,18.63,North,4,0.0,0.0,90,0.00,,---,0.00,VWS V13.01,2013-03-07 09:29:00,
2013-03-07 04:34:00,32.2,29.6,18.63,North,4,0.0,0.0,90,0.00,,---,0.00,VWS V13.01,2013-03-07 09:34:00,
2013-03-07 04:39:00,32.2,29.6,18.63,North,4,0.0,0.0,90,0.00,,---,0.00,VWS V13.01,2013-03-07 09:39:00,
2013-03-07 04:45:00,32.2,29.6,18.63,North,4,0.0,0.0,90,0.00,,---,0.00,VWS V13.01,2013-03-07 09:45:00,
2013-03-07 04:50:00,32.2,29.6,18.63,North,4,0.0,0.0,90,0.00,,---,0.00,VWS V13.01,2013-03-07 09:50:00,
2013-03-07 04:55:00,32.2,29.6,18.63,North,4,0.0,0.0,90,0.00,,---,0.00,VWS V13.01,2013-03-07 09:55:00,
2013-03-07 05:00:00,32.2,29.6,18.63,North,4,0.0,0.0,90,0.00,,---,0.00,VWS V13.01,2013-03-07 10:00:00,
2013-03-07 05:05:00,32.2,29.6,18.63,North,4,0.0,0.0,90,0.00,,---,0.00,VWS V13.01,2013-03-07 10:05:00,
2013-03-07 05:11:00,32.4,29.8,18.63,North,4,0.0,0.0,90,0.00,,---,0.00,VWS V13.01,2013-03-07 10:11:00,
2013-03-07 05:16:00,32.4,29.8,18.63,North,4,0.0,0.0,90,0.00,,---,0.00,VWS V13.01,2013-03-07 10:16:00,
2013-03-07 05:21:00,32.4,30.0,18.63,North,4,0.0,0.0,91,0.00,,---,0.00,VWS V13.01,2013-03-07 10:21:00,
2013-03-07 05:26:00,32.4,30.0,18.63,North,4,0.0,0.0,91,0.00,,---,0.00,VWS V13.01,2013-03-07 10:26:00,
2013-03-07 05:31:00,32.4,30.0,18.63,North,4,0.0,0.0,91,0.00,,---,0.00,VWS V13.01,2013-03-07 10:31:00,
2013-03-07 05:36:00,32.5,30.2,18.63,North,4,0.0,0.0,91,0.00,,---,0.00,VWS V13.01,2013-03-07 10:36:00,
2013-03-07 05:42:00,32.5,30.2,18.63,North,4,0.0,0.0,91,0.00,,---,0.00,VWS V13.01,2013-03-07 10:42:00,
2013-03-07 05:47:00,32.5,30.5,18.63,North,4,0.0,0.0,92,0.00,,---,0.00,VWS V13.01,2013-03-07 10:47:00,
2013-03-07 05:52:00,32.5,30.5,18.63,North,4,0.0,0.0,92,0.00,,---,0.00,VWS V13.01,2013-03-07 10:52:00,
2013-03-07 05:57:00,32.5,30.5,18.63,North,4,0.0,0.0,92,0.00,,---,0.00,VWS V13.01,2013-03-07 10:57:00,
2013-03-07 06:02:00,32.5,30.5,18.63,North,4,0.0,0.0,92,0.00,,---,0.00,VWS V13.01,2013-03-07 11:02:00,
2013-03-07 06:07:00,32.5,30.7,18.63,North,4,0.0,0.0,93,0.00,,---,0.00,VWS V13.01,2013-03-07 11:07:00,
2013-03-07 06:13:00,32.5,30.7,18.63,North,4,0.0,0.0,93,0.00,,---,0.00,VWS V13.01,2013-03-07 11:13:00,
2013-03-07 06:18:00,32.5,30.7,18.63,North,4,0.0,0.0,93,0.00,,---,0.00,VWS V13.01,2013-03-07 11:18:00,
2013-03-07 06:23:00,32.5,31.0,18.63,North,4,0.0,0.0,94,0.00,,---,0.00,VWS V13.01,2013-03-07 11:23:00,
2013-03-07 06:28:00,32.5,31.0,18.63,North,4,0.0,0.0,94,0.00,,---,0.00,VWS V13.01,2013-03-07 11:28:00,
2013-03-07 06:33:00,32.5,31.0,18.63,North,4,0.0,0.0,94,0.00,,---,0.00,VWS V13.01,2013-03-07 11:33:00,
2013-03-07 06:38:00,32.5,31.0,18.63,North,4,0.0,0.0,94,0.00,,---,0.00,VWS V13.01,2013-03-07 11:38:00,
2013-03-07 06:43:00,32.5,31.0,18.63,North,4,0.0,0.0,94,0.00,,---,0.00,VWS V13.01,2013-03-07 11:43:00,
2013-03-07 06:48:00,32.5,31.0,18.63,North,4,0.0,0.0,94,0.00,,---,0.00,VWS V13.01,2013-03-07 11:48:00,
2013-03-07 06:54:00,32.7,31.2,18.63,North,4,0.0,0.0,94,0.00,,---,0.00,VWS V13.01,2013-03-07 11:54:00,
2013-03-07 06:59:00,32.7,31.2,18.63,North,4,0.0,0.0,94,0.00,,---,0.00,VWS V13.01,2013-03-07 11:59:00,
2013-03-07 07:04:00,32.7,31.2,18.63,North,4,0.0,0.0,94,0.00,,---,0.00,VWS V13.01,2013-03-07 12:04:00,
2013-03-07 07:09:00,32.7,31.2,18.63,North,4,0.0,0.0,94,0.00,,---,0.00,VWS V13.01,2013-03-07 12:09:00,
2013-03-07 07:14:00,32.9,31.4,18.63,North,4,0.0,0.0,94,0.00,,---,0.00,VWS V13.01,2013-03-07 12:14:00,
2013-03-07 07:19:00,32.9,31.4,18.63,North,4,0.0,0.0,94,0.00,,---,0.00,VWS V13.01,2013-03-07 12:19:00,
2013-03-07 07:25:00,33.1,31.5,18.63,North,4,0.0,0.0,94,0.00,,---,0.00,VWS V13.01,2013-03-07 12:25:00,
2013-03-07 07:30:00,33.1,31.5,18.63,NNE,32,0.0,0.0,94,0.00,,---,0.00,VWS V13.01,2013-03-07 12:30:00,
2013-03-07 07:35:00,33.1,31.5,18.63,North,357,0.0,0.0,94,0.00,,---,0.00,VWS V13.01,2013-03-07 12:35:00,
2013-03-07 07:41:00,33.3,31.5,18.63,North,357,0.0,0.0,93,0.00,,---,0.00,VWS V13.01,2013-03-07 12:41:00,
2013-03-07 07:46:00,33.3,31.5,18.63,North,357,0.0,0.0,93,0.00,,---,0.00,VWS V13.01,2013-03-07 12:46:00,
2013-03-07 07:51:00,33.4,31.4,18.63,North,357,0.0,0.0,92,0.00,,---,0.00,VWS V13.01,2013-03-07 12:51:00,
2013-03-07 07:56:00,33.4,31.1,18.63,North,357,0.0,3.1,91,0.00,,---,0.00,VWS V13.01,2013-03-07 12:56:00,
2013-03-07 08:01:00,33.6,31.0,18.63,North,1,0.0,0.0,90,0.00,,---,0.00,VWS V13.01,2013-03-07 13:01:00,
2013-03-07 08:07:00,33.8,30.9,18.63,North,353,0.0,0.0,89,0.00,,---,0.00,VWS V13.01,2013-03-07 13:07:00,
2013-03-07 08:13:00,34.0,30.8,18.63,North,8,0.0,0.0,88,0.00,,---,0.00,VWS V13.01,2013-03-07 13:13:00,
2013-03-07 08:18:00,34.0,30.5,18.63,NNE,15,0.0,0.0,87,0.00,,---,0.00,VWS V13.01,2013-03-07 13:18:00,
2013-03-07 08:23:00,34.3,30.6,18.63,North,6,0.0,0.0,86,0.00,,---,0.00,VWS V13.01,2013-03-07 13:23:00,
2013-03-07 08:28:00,34.5,30.5,18.63,NNE,31,0.0,4.5,85,0.00,,---,0.00,VWS V13.01,2013-03-07 13:28:00,
2013-03-07 08:33:00,35.1,30.7,18.63,NNE,20,0.0,0.0,84,0.00,,---,0.00,VWS V13.01,2013-03-07 13:33:00,
2013-03-07 08:38:00,35.4,30.5,18.63,NW,309,0.0,3.6,82,0.00,,---,0.00,VWS V13.01,2013-03-07 13:38:00,
2013-03-07 08:44:00,35.6,29.7,18.63,NNE,20,3.6,3.6,79,0.00,,---,0.00,VWS V13.01,2013-03-07 13:44:00,
2013-03-07 08:49:00,35.4,29.2,18.63,NNE,17,3.1,4.0,78,0.00,,---,0.00,VWS V13.01,2013-03-07 13:49:00,
2013-03-07 08:54:00,35.6,29.1,18.63,North,357,2.7,5.4,77,0.00,,---,0.00,VWS V13.01,2013-03-07 13:54:00,
2013-03-07 08:59:00,35.8,28.6,18.63,North,357,0.0,5.4,75,0.00,,---,0.00,VWS V13.01,2013-03-07 13:59:00,
2013-03-07 09:04:00,36.1,29.0,18.63,NNE,24,2.2,4.0,75,0.00,,---,0.00,VWS V13.01,2013-03-07 14:04:00,
2013-03-07 09:09:00,36.1,28.7,18.63,North,353,0.0,4.0,74,0.00,,---,0.00,VWS V13.01,2013-03-07 14:09:00,
2013-03-07 09:14:00,36.3,28.2,18.63,NE,37,3.6,5.8,72,0.00,,---,0.00,VWS V13.01,2013-03-07 14:14:00,
2013-03-07 09:19:00,36.3,27.8,18.63,NNE,26,0.0,5.8,71,0.00,,---,0.00,VWS V13.01,2013-03-07 14:19:00,
2013-03-07 09:25:00,36.5,28.0,18.63,NNW,344,0.0,0.0,71,0.00,,---,0.00,VWS V13.01,2013-03-07 14:25:00,
2013-03-07 09:30:00,36.3,27.8,18.63,NNE,16,4.0,6.3,71,0.00,,---,0.00,VWS V13.01,2013-03-07 14:30:00,
2013-03-07 09:35:00,36.3,27.8,18.63,NNE,25,5.8,6.3,71,0.00,,---,0.00,VWS V13.01,2013-03-07 14:35:00,
2013-03-07 09:40:00,36.1,27.7,18.63,NNW,344,0.0,0.0,71,0.00,,---,0.00,VWS V13.01,2013-03-07 14:40:00,
2013-03-07 09:45:00,36.3,27.5,18.63,North,353,3.6,4.9,70,0.00,,---,0.00,VWS V13.01,2013-03-07 14:45:00,
2013-03-07 09:50:00,36.3,27.8,18.63,NNW,345,0.0,0.0,71,0.00,,---,0.00,VWS V13.01,2013-03-07 14:50:00,
2013-03-07 09:55:00,36.5,27.7,18.63,North,0,0.0,0.0,70,0.00,,---,0.00,VWS V13.01,2013-03-07 14:55:00,
2013-03-07 10:01:00,36.5,27.7,18.63,NW,305,0.0,0.0,70,0.00,,---,0.00,VWS V13.01,2013-03-07 15:01:00,
2013-03-07 10:06:00,36.7,27.8,18.63,North,353,4.0,5.8,70,0.00,,---,0.00,VWS V13.01,2013-03-07 15:06:00,
2013-03-07 10:11:00,36.7,27.8,18.63,North,0,5.8,6.3,70,0.00,,---,0.00,VWS V13.01,2013-03-07 15:11:00,
2013-03-07 10:16:00,36.9,27.7,18.63,NNE,23,3.1,6.3,69,0.00,,---,0.00,VWS V13.01,2013-03-07 15:16:00,
2013-03-07 10:21:00,37.2,27.6,18.63,NNE,33,4.0,4.9,68,0.00,,---,0.00,VWS V13.01,2013-03-07 15:21:00,
2013-03-07 10:26:00,37.6,27.6,18.63,North,353,2.2,4.9,67,0.00,,---,0.00,VWS V13.01,2013-03-07 15:26:00,
2013-03-07 10:31:00,37.6,27.3,18.63,NW,316,0.0,0.0,66,0.00,,---,0.00,VWS V13.01,2013-03-07 15:31:00,
2013-03-07 10:36:00,37.9,27.6,18.63,WNW,302,0.0,4.5,66,0.00,,---,0.00,VWS V13.01,2013-03-07 15:36:00,
2013-03-07 10:42:00,37.9,26.9,18.63,NW,314,0.0,0.0,64,0.00,,---,0.00,VWS V13.01,2013-03-07 15:42:00,
2013-03-07 10:47:00,37.8,26.7,18.63,NNW,327,2.7,5.4,64,0.00,,---,0.00,VWS V13.01,2013-03-07 15:47:00,
2013-03-07 10:52:00,37.6,26.9,18.63,North,353,0.0,3.6,65,0.00,,---,0.00,VWS V13.01,2013-03-07 15:52:00,
2013-03-07 10:57:00,37.2,27.3,18.63,NW,306,2.7,5.4,67,0.00,,---,0.00,VWS V13.01,2013-03-07 15:57:00,
2013-03-07 11:02:00,37.4,27.5,18.63,North,9,2.7,4.0,67,0.00,,---,0.00,VWS V13.01,2013-03-07 16:02:00,
2013-03-07 11:08:00,37.4,27.1,18.63,North,0,3.6,7.6,66,0.00,,---,0.00,VWS V13.01,2013-03-07 16:08:00,
2013-03-07 11:13:00,37.6,26.9,18.63,NNW,340,5.8,5.8,65,0.00,,---,0.00,VWS V13.01,2013-03-07 16:13:00,
2013-03-07 11:18:00,37.2,26.5,18.63,North,0,3.1,6.3,65,0.00,,---,0.00,VWS V13.01,2013-03-07 16:18:00,
2013-03-07 11:23:00,37.2,26.2,18.63,NNW,334,5.8,6.3,64,0.00,,---,0.00,VWS V13.01,2013-03-07 16:23:00,
2013-03-07 11:29:00,36.9,26.6,18.63,WNW,300,0.0,6.3,66,0.00,,---,0.00,VWS V13.01,2013-03-07 16:29:00,
2013-03-07 11:34:00,37.0,27.1,18.63,WNW,284,2.7,6.3,67,0.00,,---,0.00,VWS V13.01,2013-03-07 16:34:00,
2013-03-07 11:39:00,37.0,27.1,18.63,North,357,0.0,6.3,67,0.00,,---,0.00,VWS V13.01,2013-03-07 16:39:00,
2013-03-07 11:44:00,37.0,27.1,18.63,NW,316,2.7,4.9,67,0.00,,---,0.00,VWS V13.01,2013-03-07 16:44:00,
2013-03-07 11:49:00,36.5,26.6,18.63,North,6,0.0,4.9,67,0.00,,---,0.00,VWS V13.01,2013-03-07 16:49:00,
2013-03-07 11:54:00,36.1,26.6,18.63,North,353,2.7,6.3,68,0.00,,---,0.00,VWS V13.01,2013-03-07 16:54:00,
2013-03-07 11:59:00,36.0,26.8,18.63,NNW,345,4.0,7.6,69,0.00,,---,0.00,VWS V13.01,2013-03-07 16:59:00,
2013-03-07 12:04:00,35.6,26.8,18.63,NNE,30,5.8,8.7,70,0.00,,---,0.00,VWS V13.01,2013-03-07 17:04:00,
2013-03-07 12:10:00,35.6,27.1,18.63,North,3,4.0,4.9,71,0.00,,---,0.00,VWS V13.01,2013-03-07 17:10:00,
2013-03-07 12:15:00,35.8,27.0,18.63,NNW,344,2.7,6.3,70,0.00,,---,0.00,VWS V13.01,2013-03-07 17:15:00,
2013-03-07 12:20:00,36.1,27.3,18.63,North,4,3.6,4.9,70,0.00,,---,0.00,VWS V13.01,2013-03-07 17:20:00,
2013-03-07 12:25:00,36.1,27.0,18.63,North,349,4.9,6.3,69,0.00,,---,0.00,VWS V13.01,2013-03-07 17:25:00,
2013-03-07 12:30:00,36.5,27.0,18.63,North,357,4.0,4.9,68,0.00,,---,0.00,VWS V13.01,2013-03-07 17:30:00,
2013-03-07 12:36:00,36.7,27.1,18.63,North,2,3.1,5.4,68,0.00,,---,0.00,VWS V13.01,2013-03-07 17:36:00,
2013-03-07 12:41:00,36.9,26.6,18.63,WNW,291,2.7,5.4,66,0.00,,---,0.00,VWS V13.01,2013-03-07 17:41:00,
2013-03-07 12:46:00,36.9,26.2,18.63,NW,315,2.7,6.3,65,0.00,,---,0.00,VWS V13.01,2013-03-07 17:46:00,
2013-03-07 12:51:00,37.2,26.5,18.63,NW,316,0.0,3.6,65,0.00,,---,0.00,VWS V13.01,2013-03-07 17:51:00,
2013-03-07 12:56:00,37.8,25.1,18.63,North,349,6.3,7.2,60,0.00,,---,0.00,VWS V13.01,2013-03-07 17:56:00,
2013-03-07 13:02:00,37.9,25.3,18.63,NNW,346,4.0,5.4,60,0.00,,---,0.00,VWS V13.01,2013-03-07 18:02:00,
2013-03-07 13:08:00,37.9,24.5,18.63,North,11,6.3,6.3,58,0.00,,---,0.00,VWS V13.01,2013-03-07 18:08:00,
2013-03-07 13:13:00,37.8,24.3,18.63,NNW,327,4.0,8.1,58,0.00,,---,0.00,VWS V13.01,2013-03-07 18:13:00,
2013-03-07 13:18:00,37.6,24.2,18.63,NW,304,2.7,8.1,58,0.00,,---,0.00,VWS V13.01,2013-03-07 18:18:00,
2013-03-07 13:23:00,37.6,24.6,18.63,North,353,7.2,7.2,59,0.00,,---,0.00,VWS V13.01,2013-03-07 18:23:00,
2013-03-07 13:28:00,37.6,24.6,18.63,North,5,5.4,7.2,59,0.00,,---,0.00,VWS V13.01,2013-03-07 18:28:00,
2013-03-07 13:33:00,37.6,24.6,18.63,North,7,5.4,8.3,59,0.00,,---,0.00,VWS V13.01,2013-03-07 18:33:00,
2013-03-07 13:38:00,37.6,24.6,18.63,NNW,346,4.0,8.3,59,0.00,,---,0.00,VWS V13.01,2013-03-07 18:38:00,
2013-03-07 13:43:00,37.8,24.3,18.63,North,0,3.1,5.8,58,0.00,,---,0.00,VWS V13.01,2013-03-07 18:43:00,
2013-03-07 13:49:00,37.9,24.5,18.63,NNW,343,2.7,8.1,58,0.00,,---,0.00,VWS V13.01,2013-03-07 18:49:00,
2013-03-07 13:54:00,37.9,24.5,18.63,NNW,338,2.7,6.3,58,0.00,,---,0.00,VWS V13.01,2013-03-07 18:54:00,
2013-03-07 13:59:00,37.9,24.5,18.63,NNW,330,4.9,6.3,58,0.00,,---,0.00,VWS V13.01,2013-03-07 18:59:00,
2013-03-07 14:04:00,37.8,24.3,18.63,WNW,289,5.4,8.3,58,0.00,,---,0.00,VWS V13.01,2013-03-07 19:04:00,
2013-03-07 14:09:00,37.6,24.2,18.63,NNE,21,5.4,8.3,58,0.00,,---,0.00,VWS V13.01,2013-03-07 19:09:00,
2013-03-07 14:14:00,37.0,24.5,18.63,North,11,7.6,8.7,60,0.00,,---,0.00,VWS V13.01,2013-03-07 19:14:00,
2013-03-07 14:19:00,36.7,24.5,18.63,NNW,338,5.4,8.7,61,0.00,,---,0.00,VWS V13.01,2013-03-07 19:19:00,
2013-03-07 14:25:00,36.3,24.6,18.63,NNE,17,4.9,8.7,62,0.00,,---,0.00,VWS V13.01,2013-03-07 19:25:00,
2013-03-07 14:30:00,36.1,24.4,18.63,North,4,6.3,6.3,62,0.00,,---,0.00,VWS V13.01,2013-03-07 19:30:00,
2013-03-07 14:35:00,36.1,24.4,18.63,NNE,24,6.3,7.6,62,0.00,,---,0.00,VWS V13.01,2013-03-07 19:35:00,
2013-03-07 14:41:00,36.1,24.4,18.63,NNE,16,5.8,6.7,62,0.00,,---,0.00,VWS V13.01,2013-03-07 19:41:00,
2013-03-07 14:46:00,36.0,24.2,18.63,North,5,6.3,8.3,62,0.00,,---,0.00,VWS V13.01,2013-03-07 19:46:00,
2013-03-07 14:51:00,35.8,23.7,18.63,NNE,24,4.9,8.7,61,0.00,,---,0.00,VWS V13.01,2013-03-07 19:51:00,
2013-03-07 14:56:00,35.8,23.7,18.63,NNE,29,4.0,8.7,61,0.00,,---,0.00,VWS V13.01,2013-03-07 19:56:00,
2013-03-07 15:01:00,36.0,23.8,18.63,North,8,4.5,6.7,61,0.00,,---,0.00,VWS V13.01,2013-03-07 20:01:00,
2013-03-07 15:06:00,36.3,24.2,18.63,North,0,3.1,6.7,61,0.00,,---,0.00,VWS V13.01,2013-03-07 20:06:00,
2013-03-07 15:12:00,36.0,23.4,18.63,North,357,4.0,8.3,60,0.00,,---,0.00,VWS V13.01,2013-03-07 20:12:00,
2013-03-07 15:18:00,35.6,23.1,18.63,North,2,4.0,10.1,60,0.00,,---,0.00,VWS V13.01,2013-03-07 20:18:00,
2013-03-07 15:23:00,35.4,23.7,18.63,North,357,4.9,6.7,62,0.00,,---,0.00,VWS V13.01,2013-03-07 20:23:00,
2013-03-07 15:29:00,35.4,24.1,18.63,NE,34,2.7,8.3,63,0.00,,---,0.00,VWS V13.01,2013-03-07 20:29:00,
2013-03-07 15:34:00,35.2,23.5,18.63,NNE,17,2.7,8.1,62,0.00,,---,0.00,VWS V13.01,2013-03-07 20:34:00,
2013-03-07 15:39:00,35.1,23.4,18.63,North,0,4.5,8.7,62,0.00,,---,0.00,VWS V13.01,2013-03-07 20:39:00,
2013-03-07 15:44:00,34.9,22.8,18.63,North,357,5.4,8.1,61,0.00,,---,0.00,VWS V13.01,2013-03-07 20:44:00,
2013-03-07 15:49:00,34.9,22.4,18.63,NNW,345,4.0,8.1,60,0.00,,---,0.00,VWS V13.01,2013-03-07 20:49:00,
2013-03-07 15:55:00,34.9,22.4,18.63,North,7,4.0,6.3,60,0.00,,---,0.00,VWS V13.01,2013-03-07 20:55:00,
2013-03-07 16:00:00,34.9,22.4,18.63,North,2,0.0,0.0,60,0.00,,---,0.00,VWS V13.01,2013-03-07 21:00:00,
2013-03-07 16:05:00,34.7,22.6,18.63,NE,38,4.9,5.8,61,0.00,,---,0.00,VWS V13.01,2013-03-07 21:05:00,
2013-03-07 16:10:00,34.5,22.5,18.63,North,357,3.6,4.0,61,0.00,,---,0.00,VWS V13.01,2013-03-07 21:10:00,
2013-03-07 16:15:00,34.5,22.9,18.63,North,6,0.0,7.2,62,0.00,,---,0.00,VWS V13.01,2013-03-07 21:15:00,
2013-03-07 16:20:00,34.5,23.2,18.63,ENE,60,3.6,3.6,63,0.00,,---,0.00,VWS V13.01,2013-03-07 21:20:00,
2013-03-07 16:26:00,34.5,23.6,18.63,ENE,64,4.0,7.6,64,0.00,,---,0.00,VWS V13.01,2013-03-07 21:26:00,
2013-03-07 16:31:00,34.7,23.8,18.63,NNE,23,4.0,5.4,64,0.00,,---,0.00,VWS V13.01,2013-03-07 21:31:00,
2013-03-07 16:36:00,34.9,24.0,18.63,North,0,6.3,6.3,64,0.00,,---,0.00,VWS V13.01,2013-03-07 21:36:00,
2013-03-07 16:41:00,34.9,24.0,18.63,North,353,4.5,4.5,64,0.00,,---,0.00,VWS V13.01,2013-03-07 21:41:00,
2013-03-07 16:46:00,34.9,24.0,18.63,ENE,58,0.0,4.5,64,0.00,,---,0.00,VWS V13.01,2013-03-07 21:46:00,
2013-03-07 16:52:00,34.9,23.2,18.63,NE,35,0.0,0.0,62,0.00,,---,0.00,VWS V13.01,2013-03-07 21:52:00,
2013-03-07 16:57:00,34.9,23.2,18.63,ENE,76,3.6,4.0,62,0.00,,---,0.00,VWS V13.01,2013-03-07 21:57:00,
2013-03-07 17:02:00,34.7,23.4,18.63,ENE,68,0.0,0.0,63,0.00,,---,0.00,VWS V13.01,2013-03-07 22:02:00,
2013-03-07 17:07:00,34.5,23.6,18.63,ENE,60,2.7,4.9,64,0.00,,---,0.00,VWS V13.01,2013-03-07 22:07:00,
2013-03-07 17:13:00,34.3,23.8,18.63,NE,54,4.9,5.4,65,0.00,,---,0.00,VWS V13.01,2013-03-07 22:13:00,
2013-03-07 17:18:00,34.3,23.8,18.63,North,4,4.0,5.4,65,0.00,,---,0.00,VWS V13.01,2013-03-07 22:18:00,
2013-03-07 17:23:00,34.0,23.8,18.63,North,8,3.6,4.0,66,0.00,,---,0.00,VWS V13.01,2013-03-07 22:23:00,
2013-03-07 17:28:00,33.8,24.0,18.63,NNE,24,0.0,4.0,67,0.00,,---,0.00,VWS V13.01,2013-03-07 22:28:00,
2013-03-07 17:33:00,33.8,24.0,18.63,NNW,343,0.0,4.0,67,0.00,,---,0.00,VWS V13.01,2013-03-07 22:33:00,
2013-03-07 17:38:00,33.6,24.2,18.63,North,353,0.0,4.0,68,0.00,,---,0.00,VWS V13.01,2013-03-07 22:38:00,
2013-03-07 17:43:00,33.6,24.5,18.63,North,2,0.0,0.0,69,0.00,,---,0.00,VWS V13.01,2013-03-07 22:43:00,
2013-03-07 17:48:00,33.6,24.5,18.63,NNE,17,0.0,0.0,69,0.00,,---,0.00,VWS V13.01,2013-03-07 22:48:00,
2013-03-07 17:53:00,33.4,24.4,18.63,North,2,0.0,0.0,69,0.00,,---,0.00,VWS V13.01,2013-03-07 22:53:00,
2013-03-07 17:58:00,33.3,24.2,18.63,North,2,0.0,0.0,69,0.00,,---,0.00,VWS V13.01,2013-03-07 22:58:00,
2013-03-07 18:04:00,33.3,24.2,18.63,North,2,0.0,0.0,69,0.00,,---,0.00,VWS V13.01,2013-03-07 23:04:00,
2013-03-07 18:09:00,33.1,24.0,18.63,North,2,0.0,0.0,69,0.00,,---,0.00,VWS V13.01,2013-03-07 23:09:00,
2013-03-07 18:14:00,33.1,23.7,18.63,North,2,0.0,0.0,68,0.00,,---,0.00,VWS V13.01,2013-03-07 23:14:00,
2013-03-07 18:19:00,32.7,23.7,18.63,North,2,0.0,0.0,69,0.00,,---,0.00,VWS V13.01,2013-03-07 23:19:00,
2013-03-07 18:24:00,32.7,23.7,18.63,North,2,0.0,0.0,69,0.00,,---,0.00,VWS V13.01,2013-03-07 23:24:00,
2013-03-07 18:29:00,32.5,23.5,18.63,North,2,0.0,0.0,69,0.00,,---,0.00,VWS V13.01,2013-03-07 23:29:00,
2013-03-07 18:34:00,32.5,23.5,18.63,North,2,0.0,0.0,69,0.00,,---,0.00,VWS V13.01,2013-03-07 23:34:00,
2013-03-07 18:39:00,32.5,23.5,18.63,NNE,32,0.0,0.0,69,0.00,,---,0.00,VWS V13.01,2013-03-07 23:39:00,
2013-03-07 18:44:00,32.4,23.3,18.63,NNE,28,0.0,0.0,69,0.00,,---,0.00,VWS V13.01,2013-03-07 23:44:00,
2013-03-07 18:49:00,32.4,23.7,18.63,NNE,28,0.0,0.0,70,0.00,,---,0.00,VWS V13.01,2013-03-07 23:49:00,
2013-03-07 18:54:00,32.2,23.5,18.63,NNE,28,0.0,0.0,70,0.00,,---,0.00,VWS V13.01,2013-03-07 23:54:00,
2013-03-07 19:00:00,32.2,23.5,18.63,NNE,28,0.0,0.0,70,0.00,,---,0.00,VWS V13.01,2013-03-08 00:00:00,
2013-03-07 19:05:00,32.2,23.9,18.63,NNE,28,0.0,0.0,71,0.00,,---,0.00,VWS V13.01,2013-03-08 00:05:00,
2013-03-07 19:10:00,32.2,23.9,18.63,NNE,28,0.0,0.0,71,0.00,,---,0.00,VWS V13.01,2013-03-08 00:10:00,
2013-03-07 19:15:00,32.2,23.9,18.63,NNE,28,0.0,0.0,71,0.00,,---,0.00,VWS V13.01,2013-03-08 00:15:00,
2013-03-07 19:20:00,32.2,24.2,18.63,NE,37,0.0,0.0,72,0.00,,---,0.00,VWS V13.01,2013-03-08 00:20:00,
2013-03-07 19:25:00,32.0,24.3,18.63,NE,35,3.1,5.4,73,0.00,,---,0.00,VWS V13.01,2013-03-08 00:25:00,
2013-03-07 19:31:00,32.0,24.3,18.63,NNE,33,3.6,3.6,73,0.00,,---,0.00,VWS V13.01,2013-03-08 00:31:00,
2013-03-07 19:36:00,31.8,24.5,18.63,North,11,3.1,4.0,74,0.00,,---,0.00,VWS V13.01,2013-03-08 00:36:00,
2013-03-07 19:41:00,31.8,24.8,18.63,NNE,18,0.0,0.0,75,0.00,,---,0.00,VWS V13.01,2013-03-08 00:41:00,
2013-03-07 19:46:00,31.8,24.8,18.63,NNE,28,0.0,4.0,75,0.00,,---,0.00,VWS V13.01,2013-03-08 00:46:00,
2013-03-07 19:52:00,31.6,24.6,18.63,NE,44,3.6,5.4,75,0.00,,---,0.00,VWS V13.01,2013-03-08 00:52:00,
2013-03-07 19:57:00,31.5,24.5,18.63,North,7,0.0,5.4,75,0.00,,---,0.00,VWS V13.01,2013-03-08 00:57:00,
2013-03-07 20:02:00,31.5,24.5,18.63,NNE,18,0.0,0.0,75,0.00,,---,0.00,VWS V13.01,2013-03-08 01:02:00,
2013-03-07 20:07:00,31.5,24.8,18.63,North,6,0.0,0.0,76,0.00,,---,0.00,VWS V13.01,2013-03-08 01:07:00,
2013-03-07 20:12:00,31.3,24.6,18.63,NNE,17,2.7,4.0,76,0.00,,---,0.00,VWS V13.01,2013-03-08 01:12:00,
2013-03-07 20:17:00,31.1,24.4,18.63,NNE,27,0.0,4.0,76,0.00,,---,0.00,VWS V13.01,2013-03-08 01:17:00,
2013-03-07 20:23:00,31.1,24.4,18.63,NNE,13,0.0,0.0,76,0.00,,---,0.00,VWS V13.01,2013-03-08 01:23:00,
2013-03-07 20:28:00,31.1,24.8,18.63,North,2,0.0,0.0,77,0.00,,---,0.00,VWS V13.01,2013-03-08 01:28:00,
2013-03-07 20:33:00,30.9,24.9,18.63,NNE,14,0.0,0.0,78,0.00,,---,0.00,VWS V13.01,2013-03-08 01:33:00,
2013-03-07 20:38:00,30.7,24.7,18.63,NNE,30,3.6,5.4,78,0.00,,---,0.00,VWS V13.01,2013-03-08 01:38:00,
2013-03-07 20:43:00,30.7,25.0,18.63,North,11,2.7,5.4,79,0.00,,---,0.00,VWS V13.01,2013-03-08 01:43:00,
2013-03-07 20:48:00,30.6,25.1,18.63,North,353,2.2,5.4,80,0.00,,---,0.00,VWS V13.01,2013-03-08 01:48:00,
2013-03-07 20:53:00,30.4,25.0,18.63,North,5,0.0,3.1,80,0.00,,---,0.00,VWS V13.01,2013-03-08 01:53:00,
2013-03-07 20:58:00,30.4,25.3,18.63,North,5,0.0,3.1,81,0.00,,---,0.00,VWS V13.01,2013-03-08 01:58:00,
2013-03-07 21:03:00,30.6,25.7,18.63,North,5,0.0,0.0,82,0.00,,---,0.00,VWS V13.01,2013-03-08 02:03:00,
2013-03-07 21:08:00,30.6,25.7,18.63,North,5,0.0,0.0,82,0.00,,---,0.00,VWS V13.01,2013-03-08 02:08:00,
2013-03-07 21:13:00,30.6,25.7,18.63,North,5,0.0,0.0,82,0.00,,---,0.00,VWS V13.01,2013-03-08 02:13:00,
2013-03-07 21:18:00,30.6,25.7,18.63,North,5,0.0,0.0,82,0.00,,---,0.00,VWS V13.01,2013-03-08 02:18:00,
2013-03-07 21:24:00,30.6,25.7,18.63,North,5,0.0,0.0,82,0.00,,---,0.00,VWS V13.01,2013-03-08 02:24:00,
2013-03-07 21:29:00,30.7,25.9,18.63,North,5,0.0,0.0,82,0.00,,---,0.00,VWS V13.01,2013-03-08 02:29:00,
2013-03-07 21:34:00,30.7,25.9,18.63,North,5,0.0,0.0,82,0.00,,---,0.00,VWS V13.01,2013-03-08 02:34:00,
2013-03-07 21:39:00,30.7,25.9,18.63,North,5,0.0,0.0,82,0.00,,---,0.00,VWS V13.01,2013-03-08 02:39:00,
2013-03-07 21:44:00,30.7,25.9,18.63,North,5,0.0,0.0,82,0.00,,---,0.00,VWS V13.01,2013-03-08 02:44:00,
2013-03-07 21:49:00,30.6,25.7,18.63,North,5,0.0,0.0,82,0.00,,---,0.00,VWS V13.01,2013-03-08 02:49:00,
2013-03-07 21:55:00,30.6,25.7,18.63,North,5,0.0,0.0,82,0.00,,---,0.00,VWS V13.01,2013-03-08 02:55:00,
2013-03-07 22:00:00,30.6,25.7,18.63,North,5,0.0,0.0,82,0.00,,---,0.00,VWS V13.01,2013-03-08 03:00:00,
2013-03-07 22:05:00,30.4,25.5,18.63,North,2,0.0,0.0,82,0.00,,---,0.00,VWS V13.01,2013-03-08 03:05:00,
2013-03-07 22:10:00,30.4,25.5,18.63,North,2,0.0,0.0,82,0.00,,---,0.00,VWS V13.01,2013-03-08 03:10:00,
2013-03-07 22:16:00,30.4,25.5,18.63,North,2,0.0,0.0,82,0.00,,---,0.00,VWS V13.01,2013-03-08 03:16:00,
2013-03-07 22:22:00,30.2,25.7,18.63,North,2,0.0,0.0,83,0.00,,---,0.00,VWS V13.01,2013-03-08 03:22:00,
2013-03-07 22:27:00,30.2,25.7,18.63,North,2,0.0,0.0,83,0.00,,---,0.00,VWS V13.01,2013-03-08 03:27:00,
2013-03-07 22:32:00,30.2,25.7,18.63,North,3,0.0,0.0,83,0.00,,---,0.00,VWS V13.01,2013-03-08 03:32:00,
2013-03-07 22:37:00,30.0,25.5,18.63,North,9,3.6,4.5,83,0.00,,---,0.00,VWS V13.01,2013-03-08 03:37:00,
2013-03-07 22:42:00,30.0,25.5,18.63,North,2,0.0,0.0,83,0.00,,---,0.00,VWS V13.01,2013-03-08 03:42:00,
2013-03-07 22:47:00,30.0,25.5,18.63,North,2,0.0,0.0,83,0.00,,---,0.00,VWS V13.01,2013-03-08 03:47:00,
2013-03-07 22:53:00,30.0,25.8,18.63,North,2,0.0,0.0,84,0.00,,---,0.00,VWS V13.01,2013-03-08 03:53:00,
2013-03-07 22:58:00,30.0,25.8,18.63,North,2,0.0,0.0,84,0.00,,---,0.00,VWS V13.01,2013-03-08 03:58:00,
2013-03-07 23:03:00,29.8,25.6,18.63,North,2,0.0,0.0,84,0.00,,---,0.00,VWS V13.01,2013-03-08 04:03:00,
2013-03-07 23:09:00,29.8,25.6,18.63,North,2,0.0,0.0,84,0.00,,---,0.00,VWS V13.01,2013-03-08 04:09:00,
2013-03-07 23:14:00,29.7,25.7,18.63,North,2,0.0,0.0,85,0.00,,---,0.00,VWS V13.01,2013-03-08 04:14:00,
2013-03-07 23:19:00,29.7,25.7,18.63,North,2,0.0,0.0,85,0.00,,---,0.00,VWS V13.01,2013-03-08 04:19:00,
2013-03-07 23:24:00,29.5,25.8,18.63,NNE,25,3.6,3.6,86,0.00,,---,0.00,VWS V13.01,2013-03-08 04:24:00,
2013-03-07 23:30:00,29.5,25.8,18.63,North,353,0.0,0.0,86,0.00,,---,0.00,VWS V13.01,2013-03-08 04:30:00,
2013-03-07 23:35:00,29.5,26.1,18.63,North,357,0.0,0.0,87,0.00,,---,0.00,VWS V13.01,2013-03-08 04:35:00,
2013-03-07 23:40:00,29.5,26.1,18.63,North,357,0.0,0.0,87,0.00,,---,0.00,VWS V13.01,2013-03-08 04:40:00,
2013-03-07 23:45:00,29.5,26.1,18.63,North,357,0.0,0.0,87,0.00,,---,0.00,VWS V13.01,2013-03-08 04:45:00,
2013-03-07 23:50:00,29.5,26.1,18.63,North,353,2.7,3.1,87,0.00,,---,0.00,VWS V13.01,2013-03-08 04:50:00,
2013-03-07 23:56:00,29.5,26.1,18.63,North,353,0.0,3.1,87,0.00,,---,0.00,VWS V13.01,2013-03-08 04:56:00,